EW8557 Weather Reports


time (UTC)temp
C
wind
direction
speed
KPH
gust
KPH
rain 1hr
cm
rain 24hr
cm
rain mn
cm
humidity
%
barometer
mb
20260906134505 27 98 3.2 6.4 0.00 0.00 0.00 91 1012.0
20260906133003 27 74 3.2 6.4 0.00 0.00 0.00 91 1012.1
20260906131559 -17 0.0 0.0 0.00 0.00 0.00 1011.9
20260906130055 -17 0.0 0.0 0.00 0.00 0.00 1011.9
20260906124551 -17 0.0 0.0 0.00 0.00 0.00 1011.9
20260906123023 -17 0.0 0.0 0.00 0.00 0.00 1011.8
20260906121519 -17 0.0 0.0 0.00 0.00 0.00 1011.7
20260906120053 23 110 0.0 0.0 0.00 0.00 0.00 98 1011.6
20260906114552 22 110 0.0 1.6 0.00 0.00 0.00 98 1011.3
20260906113059 22 110 0.0 0.0 0.00 0.00 0.00 98 1011.6
20260906111551 22 110 0.0 3.2 0.00 0.00 0.00 98 1011.3
20260906110047 22 58 0.0 0.0 0.00 0.00 0.00 98 1011.1
20260906104602 22 57 0.0 0.0 0.00 0.00 0.00 98 1010.9
20260906103045 22 58 0.0 0.0 0.00 0.00 0.00 98 1010.8
20260906101544 22 58 0.0 0.0 0.00 0.00 0.00 98 1010.6
20260906100046 23 58 0.0 0.0 0.00 0.00 0.00 98 1010.5
20260906094607 22 58 0.0 0.0 0.00 0.00 0.00 98 1010.6
20260906093044 22 58 0.0 0.0 0.00 0.00 0.00 98 1010.5
20260906091544 23 58 0.0 0.0 0.00 0.00 0.00 98 1010.4
20260906090043 23 58 0.0 0.0 0.00 0.00 0.00 98 1010.5
20260906084541 23 58 0.0 0.0 0.00 0.00 0.00 98 1010.3
20260906083038 23 58 0.0 0.0 0.00 0.00 0.00 97 1010.3
20260906081547 23 58 0.0 0.0 0.00 0.00 0.00 98 1010.2
20260906080045 23 58 0.0 0.0 0.00 0.00 0.00 97 1010.3
20260906074536 23 58 0.0 0.0 0.00 0.00 0.00 97 1010.2
20260906073035 23 57 0.0 0.0 0.00 0.00 0.00 97 1010.2
20260906071533 23 57 0.0 0.0 0.00 0.00 0.00 97 1010.3
20260906070033 23 57 0.0 0.0 0.00 0.00 0.00 97 1010.0
20260906064531 23 57 0.0 0.0 0.00 0.00 0.00 97 1010.2
20260906063033 23 57 0.0 0.0 0.00 0.00 0.00 97 1010.2
20260906061536 23 57 0.0 0.0 0.00 0.00 0.00 97 1010.2
20260906060027 23 57 0.0 0.0 0.00 0.00 0.00 97 1010.5
20260906054526 23 57 0.0 0.0 0.00 0.00 0.00 97 1010.7
20260906053022 23 57 0.0 0.0 0.00 0.00 0.00 97 1010.7
20260906051521 24 57 0.0 0.0 0.00 0.00 0.00 97 1010.9
20260906050020 24 57 0.0 0.0 0.00 0.00 0.00 97 1010.8
20260906044521 24 57 0.0 0.0 0.00 0.00 0.00 96 1010.9
20260906043017 24 57 0.0 0.0 0.00 0.00 0.00 96 1011.0
20260906041517 24 57 0.0 0.0 0.00 0.00 0.00 96 1011.0
20260906040017 24 58 0.0 0.0 0.00 0.00 0.00 96 1011.0
20260906034516 25 58 0.0 0.0 0.00 0.00 0.00 95 1011.2
20260906033014 25 58 0.0 0.0 0.00 0.00 0.00 95 1011.1
20260906031523 25 57 0.0 0.0 0.00 0.00 0.00 95 1011.2
20260906030013 25 57 0.0 1.6 0.00 0.00 0.00 95 1011.1
20260906024512 25 52 0.0 1.6 0.00 0.00 0.00 95 1011.0
20260906023018 25 48 0.0 4.8 0.00 0.00 0.00 95 1010.9
20260906021512 25 76 0.0 0.0 0.00 0.00 0.00 95 1010.9
20260906020010 25 76 0.0 0.0 0.00 0.00 0.00 95 1010.7
20260906014512 25 76 0.0 0.0 0.00 0.00 0.00 95 1010.5
20260906013011 25 76 0.0 3.2 0.00 0.00 0.00 95 1010.2
20260906011513 25 63 0.0 3.2 0.00 0.00 0.00 95 1010.0
20260906010009 26 72 0.0 0.0 0.00 0.00 0.00 94 1010.1
20260906004508 26 72 0.0 0.0 0.00 0.00 0.00 93 1010.1
20260906003018 26 70 0.0 0.0 0.00 0.00 0.00 92 1009.9
20260906001508 27 70 0.0 0.0 0.00 0.00 0.00 91 1009.9
20260906000008 27 70 0.0 1.6 0.00 0.00 0.00 90 1010.1
20260905234509 27 70 0.0 1.6 0.00 0.00 0.00 91 1010.1
20260905233009 27 69 0.0 3.2 0.00 0.00 0.00 91 1009.9
20260905231506 27 67 0.0 3.2 0.00 0.00 0.00 91 1009.7
20260905230006 27 56 0.0 4.8 0.00 0.00 0.00 91 1009.8
20260905224502 26 65 3.2 6.4 0.00 0.00 0.00 91 1010.1
20260905223003 27 62 8.0 12.9 0.00 0.00 0.00 90 1010.5
20260905221602 27 98 0.0 3.2 0.00 0.00 0.00 90 1010.4
20260905220104 27 82 0.0 3.2 0.00 0.00 0.00 88 1010.4
20260905214559 28 79 0.0 3.2 0.00 0.00 0.00 85 1010.3
20260905213107 27 277 0.0 4.8 0.00 0.00 0.00 85 1010.4
20260905211558 27 236 4.8 9.7 0.00 0.00 0.00 83 1010.5
20260905210109 28 244 3.2 9.7 0.00 0.00 0.00 80 1010.5
20260905204556 28 234 9.7 14.5 0.00 0.00 0.00 79 1010.2
20260905203058 30 252 11.3 20.9 0.00 0.00 0.00 78 1010.4
20260905201603 32 14 1.6 12.9 0.00 0.00 0.00 75 1010.3
20260905200111 32 275 1.6 16.1 0.00 0.00 0.00 77 1010.3
20260905194549 32 150 0.0 4.8 0.00 0.00 0.00 74 1010.6
20260905193047 31 172 3.2 8.0 0.00 0.00 0.00 73 1011.0
20260905191546 31 141 0.0 8.0 0.00 0.00 0.00 77 1011.1
20260905190044 32 158 6.4 11.3 0.00 0.00 0.00 77 1011.4
20260905184541 32 349 4.8 11.3 0.00 0.00 0.00 74 1011.7
20260905183038 31 176 3.2 9.7 0.00 0.00 0.00 78 1011.7
20260905181537 31 137 1.6 8.0 0.00 0.00 0.00 77 1011.8
20260905180036 31 191 3.2 8.0 0.00 0.00 0.00 81 1012.2
20260905174532 30 155 3.2 6.4 0.00 0.00 0.00 82 1012.3
20260905173027 30 150 3.2 9.7 0.00 0.00 0.00 83 1012.6
20260905171540 28 169 3.2 9.7 0.00 0.00 0.00 87 1012.9
20260905170031 27 178 6.4 9.7 0.00 0.00 0.00 90 1012.9
20260905164526 26 134 3.2 9.7 0.00 0.00 0.00 91 1013.0
20260905163026 28 139 4.8 11.3 0.00 0.00 0.00 86 1013.1
20260905161535 28 148 1.6 8.0 0.00 0.00 0.00 83 1013.1
20260905160036 29 167 3.2 9.7 0.00 0.00 0.00 84 1013.2
20260905154544 30 165 0.0 0.0 0.00 0.00 0.00 83 1013.1
20260905153022 28 131 0.0 1.6 0.00 0.00 0.00 85 1013.1
20260905151517 27 170 0.0 3.2 0.00 0.00 0.00 88 1013.2
20260905150015 28 167 0.0 4.8 0.00 0.00 0.00 89 1013.2
20260905144512 27 233 0.0 6.4 0.00 0.00 0.00 92 1013.1
20260905143010 27 221 1.6 6.4 0.00 0.00 0.00 94 1013.1
20260905141507 27 171 1.6 4.8 0.00 0.00 0.00 98 1013.1
20260905140105 26 185 0.0 3.2 0.00 0.00 0.00 99 1013.0